Flag for Norway Weather past 2 weeks in Tønsberg, Norway

Now
48 °F

Partly sunny.


Feels Like: 44 °F
Forecast: 42 / 58 °F
Wind: 10 mph from South

Location: Oseberg


UV Index: 0 (Low)

Visibility: N/A


Pressure: 30.30 "Hg

Humidity: 62%

Dew point: 36 °F

Location of TønsbergLocation

Historic Weather in Tønsberg

°F

Tønsberg temperature yesterday

Maximum temperature yesterday: 59 °F (at 3:50 AM)
Minimum temperature yesterday: 48 °F (at 7:50 PM)
Average temperature yesterday: 53 °F

Past Weeks' High & Low Weather Summary

 TemperatureHumidityPressure
High59 °F (Apr 23, 3:50 AM)100% (Apr 9, 8:50 PM)30.36 "Hg (Apr 9, 8:50 PM)
Low37 °F (Apr 13, 11:50 PM)42% (Apr 23, 3:50 AM)29.24 "Hg (Apr 12, 8:50 PM)
Average45 °F79%29.95 "Hg
* Reported Apr 9 5:50 PM — Apr 24 5:50 PM, Tønsberg, Weather by CustomWeather, © 2014

Note: Actual official high and low records may vary slightly from our data, if they occured in-between our weather recording intervals... More about our weather records

Advertising

Historic Weather Conditions — Data for Previous 24 hours

 ConditionsComfort  
Time TempWeatherWind HumidityBarometerVisibility
5:50 PM
Apr 24
48 °FPartly sunny.10 mph62%30.30 "HgN/A
5:20 PM50 °FPartly sunny.10 mph58%30.30 "HgN/A
4:50 PM48 °FPartly sunny.13 mph66%30.33 "HgN/A
3:50 PM50 °FPartly sunny.14 mph58%30.33 "HgN/A
2:50 PM48 °FPartly sunny.16 mph71%30.33 "HgN/A
2:20 PM48 °FPartly sunny.14 mph71%30.33 "HgN/A
1:50 PM50 °FPartly sunny.21 mphN/A30.33 "HgN/A
1:20 PM50 °FOvercast.20 mph50%30.33 "HgN/A
12:50 PM52 °FOvercast.24 mph47%30.33 "HgN/A
11:50 AM50 °FOvercast.28 mph58%30.33 "HgN/A
11:20 AM50 °FOvercast.30 mph54%30.33 "HgN/A
10:50 AM50 °FOvercast.29 mph62%30.33 "HgN/A
10:20 AM48 °FPartly sunny.28 mph71%30.33 "HgN/A
9:50 AM48 °FPartly sunny.28 mph71%30.33 "HgN/A
9:20 AM48 °FPartly sunny.26 mph71%30.33 "HgN/A
8:50 AM48 °FPartly sunny.25 mph71%30.33 "HgN/A
8:20 AM48 °FPartly sunny.28 mph76%30.33 "HgN/A
7:50 AM48 °FPartly sunny.30 mph76%30.33 "HgN/A
7:20 AM48 °FPartly sunny.25 mph76%30.33 "HgN/A
6:50 AM48 °FPartly sunny.30 mph71%30.30 "HgN/A
6:20 AM50 °FPassing clouds.35 mph62%30.30 "HgN/A
5:50 AM50 °FPassing clouds.29 mph67%30.30 "HgN/A
5:20 AM50 °FPassing clouds.29 mph67%30.30 "HgN/A
4:50 AM50 °FPassing clouds.25 mph67%30.30 "HgN/A
3:50 AM50 °FPassing clouds.24 mph62%30.30 "HgN/A
2:50 AM50 °FPassing clouds.25 mph67%30.30 "HgN/A
1:50 AM50 °FPassing clouds.26 mph62%30.30 "HgN/A
12:50 AM50 °FPassing clouds.24 mph62%30.30 "HgN/A
11:50 PM
Apr 23
50 °FPassing clouds.22 mph62%30.30 "HgN/A
10:50 PM48 °FPassing clouds.18 mph71%30.30 "HgN/A
9:50 PM48 °FSprinkles. Partly sunny.23 mph66%30.30 "HgN/A
8:50 PM48 °FPartly sunny.25 mph71%30.27 "HgN/A
7:50 PM48 °FPartly sunny.25 mph76%30.27 "HgN/A
Weather by CustomWeather, © 2014

See weather overview